This is the latest recevied weather packets stored in our database for station/object OE1HTB-13. If no packets are shown the sender has not sent any weather packets the latest 10 day(s).
| Time | Temp. | Humidity | Pressure | Rain* | Wind** | Luminosity | Snow |
|---|---|---|---|---|---|---|---|
| 1777685473 | 10.56° C | 65% | 1024.3 hPa | 0 mm | - | 0 W/m² | - |
| 1777684572 | 10.56° C | 65% | 1024.4 hPa | 0 mm | - | 0 W/m² | - |
| 1777683672 | 11.11° C | 64% | 1024.4 hPa | 0 mm | - | 0 W/m² | - |
| 1777682773 | 11.11° C | 62% | 1024.6 hPa | 0 mm | - | 0 W/m² | - |
| 1777681872 | 11.11° C | 62% | 1024.6 hPa | 0 mm | - | 0 W/m² | - |
| 1777680972 | 11.67° C | 61% | 1024.6 hPa | 0 mm | - | 0 W/m² | - |
| 1777680072 | 11.67° C | 61% | 1024.8 hPa | 0 mm | - | 0 W/m² | - |
| 1777679172 | 11.11° C | 62% | 1024.9 hPa | 0 mm | - | 0 W/m² | - |
| 1777678272 | 11.11° C | 62% | 1024.9 hPa | 0 mm | - | 0 W/m² | - |
| 1777677371 | 11.11° C | 63% | 1024.9 hPa | 0 mm | - | 0 W/m² | - |
| 1777676471 | 11.11° C | 63% | 1025 hPa | 0 mm | - | 0 W/m² | - |
| 1777675571 | 11.11° C | 62% | 1025 hPa | 0 mm | - | 0 W/m² | - |
| 1777674671 | 11.11° C | 62% | 1025.1 hPa | 0 mm | - | 0 W/m² | - |
| 1777673771 | 11.67° C | 62% | 1025.2 hPa | 0 mm | - | 0 W/m² | - |
| 1777672870 | 11.67° C | 61% | 1025.1 hPa | 0 mm | - | 0 W/m² | - |
| 1777671970 | 11.67° C | 61% | 1025.1 hPa | 0 mm | - | 0 W/m² | - |
| 1777671070 | 12.22° C | 60% | 1025.1 hPa | 0 mm | - | 0 W/m² | - |
| 1777670170 | 12.22° C | 59% | 1025 hPa | 0 mm | - | 0 W/m² | - |
| 1777669271 | 12.22° C | 59% | 1025.1 hPa | 0 mm | - | 0 W/m² | - |
| 1777668376 | 12.78° C | 58% | 1025.2 hPa | 0 mm | - | 0 W/m² | - |
| 1777667475 | 12.78° C | 58% | 1025 hPa | 0 mm | - | 0 W/m² | - |
| 1777666574 | 12.78° C | 58% | 1025 hPa | 0 mm | - | 0 W/m² | - |
| 1777665674 | 12.78° C | 58% | 1025 hPa | 0 mm | - | 0 W/m² | - |
| 1777664774 | 12.78° C | 59% | 1025 hPa | 0 mm | - | 0 W/m² | - |
| 1777663875 | 12.78° C | 59% | 1025.1 hPa | 0 mm | - | 0 W/m² | - |
* Rain latest hour (hover to see other rain measurements)
** Current wind speed in m/s (hover to see current wind gust speed)